{"data":{"norad_id":62301,"epoch":"2026-09-21T11:48:29.920608Z","epoch_age_seconds":91563,"freshness":"FRESH","line1":"1 62301U 24239A   26264.49201297  .00013403  00000+0  40701-3 0  9991","line2":"2 62301  53.1605 348.7122 0000949  95.1252 264.9859 15.34407699 99589","mean_motion":15.34407699,"eccentricity":9.49e-5,"inclination_deg":53.1605,"raan_deg":348.7122,"arg_perigee_deg":95.1252,"mean_anomaly_deg":264.9859,"bstar":0.00040701,"rev_number":9958,"period_min":93.847287193519,"perigee_km":462.03116368509,"apogee_km":463.3295508195,"semimajor_km":6840.8173572523,"source":"CELESTRAK","updated_at":"2026-09-22T09:00:49.570615Z"}}